[[[{"header":{"parameterUnit":"kt","parameterCategory":2,"dx":1,"dy":1,"la1":30.253999710083008,"la2":30.299108505249023,"lo1":-89.0895004272461,"lo2":-89.04439544677734,"nx":28,"ny":28,"refTime":"2022-10-23T21:00:00:Z","depth":"0","parameterNumber":2,"parameterNumberName":"U-component_of_CURRENTS"},"data":[0.2906,0.2892,0.2911,0.287,0.2895,0.2865,0.2889,0.2964,0.319,0.3521,0.3862,0.4211,0.4853,0.5352,0.5419,0.528,0.4806,0.4638,0.4554,0.495,0.4959,0.4967,0.4826,0.4883,0.4883,0.3725,0.3717,0.3711,0.2955,0.2977,0.3015,0.3054,0.3054,0.3136,0.3246,0.3266,0.3401,0.3771,0.4019,0.4542,0.486,0.5187,0.5546,0.5433,0.5047,0.5289,0.4791,0.4656,0.5219,0.5088,0.5202,0.5202,0.5202,0.5202,0.5202,0.5203,0.3054,0.3061,0.312,0.3162,0.322,0.3271,0.3293,0.3465,0.3629,0.3907,0.4197,0.4496,0.4963,0.5473,0.5528,0.5621,0.5468,0.5464,0.5441,0.5168,0.4891,0.5474,0.5722,0.5724,0.5725,0.5726,0.5728,0,0.3125,0.3162,0.3207,0.3268,0.3323,0.3392,0.3514,0.3594,0.3835,0.4031,0.4309,0.4508,0.5023,0.5231,0.5622,0.569,0.5392,0.5675,0.5581,0.5094,0.4768,0.4606,0.5119,0.5352,0.5351,0.5351,0.5351,0.5351,0.3199,0.3219,0.3329,0.3358,0.3408,0.3488,0.3552,0.3724,0.383,0.4176,0.4266,0.4627,0.484,0.5293,0.5449,0.568,0.5435,0.566,0.5397,0.5303,0.5274,0.4976,0.4812,0.5346,0.5347,0.5347,0.5348,0,0.3235,0.3313,0.3366,0.3484,0.3519,0.3557,0.3713,0.3781,0.3955,0.4121,0.4176,0.4453,0.474,0.4941,0.5156,0.5204,0.5248,0.5434,0.529,0.5302,0.5253,0.5203,0.5141,0.4974,0.5633,0.5637,0.564,0,0.3319,0.3356,0.3461,0.3488,0.3552,0.365,0.3737,0.3826,0.3975,0.4086,0.4212,0.434,0.4481,0.4702,0.4759,0.5014,0.5025,0.5014,0.5051,0.489,0.4883,0.4813,0.4755,0.4948,0.4945,0.4943,0.4941,0,0.3336,0.3443,0.3495,0.3532,0.3656,0.3699,0.377,0.3893,0.397,0.4092,0.4188,0.4295,0.441,0.4496,0.4663,0.4564,0.4918,0.4787,0.4941,0.495,0.4864,0.4859,0.4948,0.4937,0.4936,0.4935,0.4934,0,0.3403,0.3458,0.3523,0.3629,0.3657,0.3701,0.3823,0.3886,0.4007,0.4052,0.4134,0.4175,0.4292,0.423,0.4452,0.4367,0.4452,0.4503,0.4517,0.4568,0.4537,0.4686,0.4849,0.4743,0.4675,0.4671,0.4668,0,0.3411,0.3479,0.3542,0.3609,0.3652,0.3735,0.3796,0.3867,0.3929,0.4001,0.4039,0.409,0.4072,0.41,0.4159,0.424,0.4334,0.4184,0.4414,0.4422,0.4476,0.4638,0.4491,0.4793,0.4625,0.463,0.4633,0,0.3408,0.3514,0.3524,0.3563,0.3661,0.3689,0.376,0.3838,0.3884,0.3919,0.3984,0.4015,0.4035,0.4048,0.4054,0.4106,0.427,0.4105,0.4107,0.4255,0.4506,0.4572,0.4609,0.4242,0.4245,0.4248,0.4599,0,0.3477,0.3514,0.353,0.36,0.364,0.3681,0.374,0.3777,0.3801,0.3831,0.3889,0.39,0.3942,0.3945,0.394,0.4029,0.407,0.4017,0.3994,0.4061,0.4208,0.4236,0.3897,0.3896,0.3895,0.3894,0,0,0.3472,0.3507,0.3543,0.3581,0.362,0.3662,0.3699,0.3725,0.3762,0.3787,0.3775,0.383,0.3827,0.3887,0.3909,0.3899,0.3972,0.3897,0.4014,0.4027,0.404,0.4183,0.4211,0.3892,0.3892,0.3891,0.3891,0,0.3498,0.3519,0.3535,0.3575,0.363,0.366,0.3671,0.3712,0.3729,0.3758,0.3763,0.3789,0.38,0.3825,0.3835,0.3882,0.392,0.3885,0.393,0.4003,0.4017,0.403,0.4175,0.42,0.3888,0.3889,0.3889,0,0.3517,0.3548,0.3551,0.3598,0.3624,0.3663,0.3663,0.3692,0.372,0.3704,0.373,0.3739,0.3745,0.3778,0.3788,0.3771,0.3885,0.3803,0.3808,0.3814,0.3888,0.3904,0.3919,0.3735,0.3734,0.3734,0,0,0.3539,0.3553,0.36,0.3605,0.3627,0.3655,0.3668,0.3686,0.3703,0.3708,0.3711,0.3717,0.3735,0.3741,0.3749,0.3766,0.3812,0.3786,0.3793,0.3799,0.3808,0.3883,0.3898,0.3733,0.3733,0.3733,0,0,0.3544,0.3588,0.36,0.3608,0.3645,0.3675,0.3685,0.3693,0.3704,0.3702,0.3698,0.3699,0.3725,0.3713,0.3697,0.3746,0.3715,0.3717,0.3759,0.3767,0.3774,0.3786,0.368,0,0,0,0,0,0.3588,0.3585,0.3596,0.3603,0.3633,0.367,0.3675,0.3693,0.3685,0.3697,0.3701,0.3687,0.3714,0.37,0.3698,0.3726,0.3715,0.3718,0.3721,0.3778,0.3787,0.3795,0,0,0,0,0,0,0.359,0.3597,0.3597,0.3625,0.3633,0.3669,0.3665,0.3669,0.3685,0.3686,0.3687,0.3687,0.3686,0.3699,0.3698,0.3726,0.3681,0.3716,0.3719,0.3721,0.3781,0.3789,0.3795,0,0,0,0,0,0.3592,0.3598,0.3641,0.3625,0.3631,0.3659,0.3665,0.3669,0.3677,0.3683,0.3684,0.3692,0.3686,0.3685,0.3698,0.3727,0.3681,0.3681,0.3718,0.372,0.3722,0.3785,0,0,0,0,0,0,0.3594,0.3594,0.3643,0.3646,0.3627,0.3658,0.3662,0.3668,0.3672,0.3674,0.3686,0.3687,0.3686,0.3685,0.3684,0.373,0.3682,0.3682,0.3681,0.372,0.3721,0.3723,0,0,0,0,0,0,0.3592,0.3596,0.3644,0.3646,0.3649,0.3657,0.3661,0.3655,0.367,0.3673,0.3675,0.3687,0.3682,0.3685,0.3684,0.3675,0.3683,0.3682,0.3682,0.3682,0.3721,0.3722,0,0,0,0,0,0,0.3594,0.3598,0.3645,0.3647,0.365,0.3682,0.3651,0.3675,0.3691,0.3671,0.3692,0.3692,0.3682,0.3681,0.3684,0.3675,0.3675,0.3683,0.3682,0.3682,0.3682,0,0,0,0,0,0,0,0.3596,0.3566,0.3631,0.3648,0.3651,0.3675,0.3676,0.3676,0.3691,0.3691,0.3692,0.3692,0.3685,0.3685,0.3684,0.3676,0,0,0.3683,0.3683,0,0,0,0,0,0,0,0,0.3565,0.3566,0.3631,0.3632,0.3633,0.3676,0.3676,0.3676,0.3691,0.3691,0.3692,0.3692,0.3685,0.3685,0.3684,0,0,0,0,0,0,0,0,0,0,0,0,0,0,0,0.3631,0.3632,0,0.3676,0.3676,0.3676,0.3691,0.3691,0.3692,0.3692,0.3685,0.3685,0.3684,0,0,0,0,0,0,0,0,0,0,0,0,0,0,0,0,0,0,0,0,0,0,0,0,0,0,0,0,0,0,0,0,0,0,0,0,0,0,0,0,0,0,0,0,0,0,0,0,0,0,0,0,0,0,0,0,0,0,0,0,0,0,0,0,0,0,0,0,0]}],[{"header":{"parameterUnit":"kt","parameterCategory":2,"dx":1,"dy":1,"la1":30.253999710083008,"la2":30.299108505249023,"lo1":-89.0895004272461,"lo2":-89.04439544677734,"nx":28,"ny":28,"refTime":"2022-10-23T21:00:00:Z","depth":"0","parameterNumber":3,"parameterNumberName":"V-component_of_CURRENTS"},"data":[0.1024,0.1135,0.1188,0.1428,0.1544,0.1778,0.1939,0.2201,0.2401,0.2681,0.2759,0.2752,0.2184,0.0025,-0.1486,-0.1867,-0.2289,-0.2412,-0.2585,-0.2169,-0.2121,-0.2075,-0.2156,-0.2548,-0.255,-0.3246,-0.3254,-0.326,0.0973,0.1038,0.1142,0.1284,0.1428,0.1467,0.171,0.187,0.2161,0.2374,0.2516,0.2276,0.1489,0.069,-0.0472,-0.1116,-0.1382,-0.1482,-0.1712,-0.1768,-0.1047,-0.1088,-0.1259,-0.1259,-0.1259,-0.1258,-0.1258,-0.1258,0.0891,0.0947,0.1018,0.1124,0.1231,0.1402,0.1527,0.1686,0.1889,0.2132,0.2101,0.2185,0.1576,0.0836,0.0373,-0.0512,-0.0505,-0.0808,-0.0979,-0.1069,-0.1221,-0.0375,-0.0438,-0.0438,-0.0437,-0.0437,-0.0437,0,0.0832,0.0847,0.0894,0.1003,0.108,0.1183,0.1287,0.1395,0.1475,0.16,0.177,0.1783,0.143,0.104,0.051,0.02,-0.0461,-0.0247,-0.0557,-0.095,-0.1072,-0.1206,-0.038,-0.0414,-0.0413,-0.0413,-0.0412,-0.0412,0.0766,0.0792,0.0848,0.0901,0.0909,0.0972,0.1035,0.1046,0.1137,0.1248,0.1337,0.1269,0.1264,0.0891,0.0445,0.0076,-0.0223,-0.0219,-0.0357,-0.0628,-0.0836,-0.0956,-0.1048,-0.0405,-0.0406,-0.0406,-0.0407,0,0.074,0.073,0.078,0.0797,0.0812,0.0858,0.0917,0.0973,0.0961,0.1069,0.107,0.0982,0.0872,0.0611,0.0353,0.0122,-0.0263,-0.0167,-0.0157,-0.0193,-0.0615,-0.0777,-0.1053,-0.1175,-0.0309,-0.0309,-0.031,0,0.0683,0.071,0.0706,0.0722,0.0784,0.0748,0.0803,0.0777,0.0779,0.0859,0.0695,0.0741,0.0456,0.037,0.0152,-0.0027,-0.0012,-0.0249,-0.0284,-0.0316,-0.0318,-0.0611,-0.0783,-0.0284,-0.0284,-0.0284,-0.0284,0,0.0627,0.064,0.0668,0.0665,0.0654,0.0665,0.066,0.062,0.0648,0.0574,0.0606,0.045,0.0426,0.0246,0.0075,0.0027,-0.0072,-0.0169,-0.0278,-0.0278,-0.0348,-0.0353,-0.0626,-0.0284,-0.0284,-0.0283,-0.0283,0,0.0556,0.0567,0.0595,0.06,0.0601,0.0598,0.059,0.0578,0.0514,0.048,0.0403,0.0325,0.0227,0.0134,-0.0023,-0.0004,-0.0116,-0.0204,-0.0208,-0.0242,-0.0297,-0.0337,-0.0316,-0.0614,-0.0252,-0.0252,-0.0252,0,0.0504,0.0527,0.049,0.0512,0.0519,0.0457,0.0451,0.0408,0.0362,0.0338,0.0218,0.0173,0.0064,0.0035,-0.004,-0.0142,-0.0192,-0.018,-0.0287,-0.0289,-0.0293,-0.026,-0.03,-0.031,-0.0249,-0.0249,-0.025,0,0.0451,0.0419,0.042,0.042,0.0366,0.0366,0.0344,0.0305,0.0305,0.0222,0.021,0.0079,0.0027,-0.0029,-0.0119,-0.0174,-0.0189,-0.0223,-0.0227,-0.0219,-0.0252,-0.0256,-0.0258,-0.0239,-0.024,-0.024,-0.0247,0,0.0361,0.0361,0.0375,0.0339,0.0324,0.0327,0.0262,0.0245,0.0197,0.0145,0.0089,-0.0015,-0.0092,-0.0135,-0.0198,-0.0238,-0.0243,-0.0292,-0.033,-0.03,-0.0306,-0.0307,-0.0315,-0.0316,-0.0317,-0.0319,0,0,0.0304,0.0304,0.0259,0.0261,0.0247,0.0172,0.018,0.0141,0.0073,0.0055,0.0021,-0.0105,-0.0183,-0.0253,-0.0259,-0.0291,-0.0306,-0.03,-0.0312,-0.031,-0.031,-0.0314,-0.0313,-0.0321,-0.0321,-0.0322,-0.0322,0,0.026,0.0241,0.0254,0.0228,0.0186,0.0142,0.0144,0.0083,0.005,0.0018,-0.0068,-0.0127,-0.0203,-0.0279,-0.0326,-0.0304,-0.0359,-0.0322,-0.0274,-0.0321,-0.0318,-0.0316,-0.0319,-0.0318,-0.0325,-0.0325,-0.0325,0,0.0194,0.0165,0.0165,0.0132,0.0098,0.0084,0.0021,0.001,-0.0009,-0.0105,-0.0139,-0.0203,-0.029,-0.033,-0.0352,-0.0372,-0.0401,-0.0402,-0.0396,-0.0386,-0.0436,-0.0432,-0.0429,-0.0474,-0.0474,-0.0474,0,0,0.0159,0.016,0.01,0.0116,0.0103,0.0036,0.002,-0.0022,-0.0075,-0.0098,-0.0163,-0.0232,-0.0292,-0.0325,-0.0376,-0.04,-0.0428,-0.0417,-0.041,-0.0404,-0.039,-0.0438,-0.0434,-0.0475,-0.0475,-0.0475,0,0,0.0136,0.0079,0.0046,0.0063,0.0025,-0.0042,-0.0037,-0.0081,-0.0128,-0.0139,-0.0232,-0.0253,-0.0291,-0.0336,-0.0335,-0.0401,-0.0434,-0.0435,-0.037,-0.0363,-0.0356,-0.0328,-0.0418,0,0,0,0,0,0.0056,0.0089,0.006,0.0054,0.0,-0.0024,-0.0034,-0.0098,-0.0131,-0.0126,-0.0193,-0.0248,-0.0361,-0.0362,-0.0376,-0.0384,-0.0484,-0.0482,-0.0481,-0.0403,-0.0394,-0.0387,0,0,0,0,0,0,0.0053,0.0047,0.0059,-0.0003,-0.0016,-0.0025,-0.0095,-0.0112,-0.0134,-0.0144,-0.0233,-0.0251,-0.0316,-0.0359,-0.0371,-0.0378,-0.0414,-0.0483,-0.0482,-0.048,-0.04,-0.0393,-0.0387,0,0,0,0,0,0.005,0.0045,-0.0021,-0.0005,-0.0016,-0.0093,-0.0097,-0.0111,-0.0131,-0.0223,-0.0242,-0.0178,-0.0313,-0.0329,-0.0367,-0.0371,-0.0406,-0.041,-0.0482,-0.0481,-0.048,-0.0397,0,0,0,0,0,0,0.0048,0.0027,-0.0025,-0.0032,-0.0021,-0.0095,-0.0107,-0.011,-0.0212,-0.0229,-0.0173,-0.018,-0.0311,-0.0324,-0.0336,-0.0365,-0.04,-0.0404,-0.0407,-0.0481,-0.048,-0.048,0,0,0,0,0,0,0.0029,0.0022,-0.0028,-0.0044,-0.0053,-0.0096,-0.0106,-0.0142,-0.0213,-0.0157,-0.0165,-0.0175,-0.0303,-0.032,-0.033,-0.0383,-0.0395,-0.0399,-0.0402,-0.0404,-0.0481,-0.048,0,0,0,0,0,0,0.0025,0.0018,-0.0043,-0.005,-0.0058,-0.0138,-0.0131,-0.0189,-0.0205,-0.0152,-0.021,-0.0213,-0.0298,-0.0309,-0.0325,-0.0373,-0.038,-0.0395,-0.0398,-0.04,-0.0401,0,0,0,0,0,0,0,0.0021,0.0081,0.0015,-0.0055,-0.0062,-0.0092,-0.0094,-0.0096,-0.0206,-0.0208,-0.021,-0.0212,-0.0372,-0.0377,-0.0381,-0.0365,0,0,-0.0395,-0.0397,0,0,0,0,0,0,0,0,0.0082,0.0081,0.0015,0.0014,0.0013,-0.0093,-0.0094,-0.0096,-0.0206,-0.0208,-0.0209,-0.0211,-0.0373,-0.0377,-0.0381,0,0,0,0,0,0,0,0,0,0,0,0,0,0,0,0.0015,0.0014,0,-0.0093,-0.0094,-0.0095,-0.0206,-0.0208,-0.0209,-0.021,-0.0374,-0.0377,-0.038,0,0,0,0,0,0,0,0,0,0,0,0,0,0,0,0,0,0,0,0,0,0,0,0,0,0,0,0,0,0,0,0,0,0,0,0,0,0,0,0,0,0,0,0,0,0,0,0,0,0,0,0,0,0,0,0,0,0,0,0,0,0,0,0,0,0,0,0,0]}]],[[{"header":{"parameterUnit":"kt","parameterCategory":2,"dx":1,"dy":1,"la1":30.253999710083008,"la2":30.299108505249023,"lo1":-89.0895004272461,"lo2":-89.04439544677734,"nx":28,"ny":28,"refTime":"2022-10-23T21:00:00:Z","depth":"2","parameterNumber":2,"parameterNumberName":"U-component_of_CURRENTS"},"data":[0.2985,0.2973,0.2986,0.2961,0.2999,0.2974,0.2989,0.3019,0.3156,0.3191,0.3273,0.3607,0.3863,0.3417,0.342,0.3254,0.3357,0.3139,0.4173,0.3984,0.4019,0.4137,0.3895,0,0,0,0,0,0.3025,0.3049,0.3094,0.3145,0.3151,0.3236,0.3329,0.333,0.3422,0.3669,0.3828,0.3679,0.3773,0.3943,0.3869,0.3909,0.3786,0.3727,0.3518,0.357,0.3614,0.3411,0.3121,0.3115,0.311,0.3106,0,0,0.3113,0.3124,0.3193,0.3244,0.3309,0.3356,0.3378,0.3532,0.3665,0.3872,0.4113,0.4269,0.4442,0.4573,0.4511,0.4487,0.477,0.4519,0.4526,0.454,0.4397,0.4338,0.4361,0.4365,0.4369,0.4372,0.4375,0,0.3171,0.3213,0.3269,0.3339,0.3405,0.3477,0.3599,0.3669,0.3898,0.4063,0.4298,0.4461,0.4812,0.4805,0.4998,0.4977,0.4881,0.4832,0.5276,0.436,0.4299,0.4291,0.4294,0.4337,0.4341,0.4344,0.4346,0.4348,0.3236,0.3261,0.3387,0.3423,0.3482,0.3575,0.3639,0.3812,0.3912,0.4231,0.4306,0.4612,0.4778,0.5083,0.5119,0.5235,0.5227,0.4927,0.4685,0.5001,0.4999,0.4979,0.496,0.4394,0.4388,0.4383,0.4379,0,0.3267,0.3348,0.3416,0.3547,0.3585,0.3635,0.3795,0.3866,0.4036,0.4189,0.4246,0.4501,0.4737,0.4891,0.5049,0.5026,0.5114,0.5121,0.4787,0.4759,0.4967,0.4948,0.5156,0.5157,0.5157,0.5158,0.5158,0,0.3345,0.3392,0.3506,0.354,0.3614,0.3719,0.3815,0.3905,0.4052,0.4159,0.4293,0.4409,0.4543,0.4715,0.4748,0.489,0.495,0.4824,0.4843,0.4535,0.4506,0.4723,0.4704,0.4867,0.4865,0.4863,0.4861,0,0.3358,0.3473,0.3532,0.3574,0.3702,0.3755,0.3827,0.3956,0.404,0.4173,0.4261,0.4377,0.4482,0.4548,0.4671,0.4602,0.4863,0.477,0.4779,0.4779,0.4516,0.4487,0.4859,0.4858,0.4858,0.4857,0.4856,0,0.3418,0.3477,0.3549,0.3665,0.3693,0.3742,0.387,0.3944,0.4071,0.4128,0.4213,0.4264,0.4379,0.4318,0.4505,0.4446,0.4491,0.4524,0.4534,0.4482,0.445,0.4334,0.4412,0.4646,0.4644,0.4641,0.4639,0,0.3422,0.3493,0.3555,0.3632,0.3676,0.3757,0.3828,0.3909,0.3982,0.4064,0.4114,0.4185,0.4173,0.4207,0.4255,0.4332,0.4391,0.4278,0.4445,0.4451,0.4398,0.4527,0.4193,0.4383,0.4606,0.4609,0.4612,0,0.3413,0.3519,0.353,0.3575,0.3667,0.3696,0.378,0.3863,0.3919,0.3975,0.4051,0.4112,0.413,0.4153,0.4168,0.4208,0.434,0.4207,0.4208,0.4299,0.4525,0.4488,0.4508,0.4329,0.4331,0.4334,0.4586,0,0.347,0.3511,0.3529,0.3596,0.3638,0.368,0.3739,0.3789,0.3827,0.3864,0.3952,0.3973,0.403,0.4049,0.4047,0.4142,0.4168,0.413,0.4089,0.4166,0.427,0.429,0.4026,0.4025,0.4023,0.4023,0,0,0.3456,0.3492,0.3525,0.3564,0.36,0.3634,0.3672,0.3711,0.376,0.3797,0.3794,0.3883,0.3895,0.3972,0.4006,0.4009,0.4064,0.4003,0.4125,0.4136,0.4147,0.4249,0.427,0.4021,0.402,0.402,0.402,0,0.347,0.3494,0.3515,0.3554,0.3601,0.3623,0.3639,0.3676,0.3713,0.3761,0.3776,0.3818,0.3863,0.3895,0.3915,0.3989,0.4011,0.4015,0.4054,0.4114,0.4127,0.4138,0.424,0.426,0.4017,0.4017,0.4017,0,0.3478,0.3502,0.3511,0.355,0.3573,0.3607,0.3607,0.364,0.368,0.3666,0.3724,0.3745,0.377,0.3828,0.3854,0.3831,0.3961,0.3897,0.3903,0.3898,0.3957,0.3972,0.3986,0.3812,0.3811,0.381,0,0,0.3491,0.3513,0.3541,0.3551,0.3569,0.3593,0.3608,0.3629,0.3653,0.3669,0.3687,0.3714,0.3751,0.377,0.3797,0.3832,0.3858,0.3872,0.3882,0.389,0.3889,0.395,0.3965,0.3808,0.3808,0.3808,0,0,0.3491,0.3523,0.3535,0.3543,0.3577,0.3594,0.3612,0.3624,0.3656,0.3662,0.3668,0.3674,0.3733,0.3728,0.3696,0.3795,0.3756,0.3762,0.3796,0.3808,0.3817,0.3811,0.3681,0,0,0,0,0,0.3516,0.3517,0.3528,0.3532,0.3554,0.3585,0.359,0.3615,0.3616,0.3642,0.3661,0.3652,0.3727,0.3697,0.3698,0.3746,0.3776,0.3781,0.3787,0.384,0.3852,0.3863,0,0,0,0,0,0,0.3517,0.352,0.3528,0.3541,0.3546,0.3584,0.3581,0.3588,0.3615,0.3621,0.3648,0.3652,0.3656,0.3695,0.3697,0.3743,0.368,0.3778,0.3783,0.3787,0.3844,0.3854,0.3863,0,0,0,0,0,0.3518,0.3521,0.3551,0.3541,0.3546,0.3577,0.3582,0.3588,0.3617,0.3625,0.3631,0.3639,0.3654,0.3658,0.3696,0.3743,0.3679,0.3679,0.3781,0.3785,0.3788,0.3849,0,0,0,0,0,0,0.3519,0.3526,0.3553,0.3555,0.3551,0.3578,0.3583,0.3588,0.362,0.3626,0.3614,0.3617,0.3653,0.3656,0.3659,0.3746,0.3678,0.3679,0.3679,0.3784,0.3787,0.379,0,0,0,0,0,0,0.3525,0.3528,0.3554,0.3564,0.3568,0.3578,0.3583,0.3586,0.362,0.3608,0.3611,0.3615,0.365,0.3655,0.3657,0.366,0.3677,0.3678,0.3678,0.3678,0.3787,0.3789,0,0,0,0,0,0,0.3527,0.353,0.3564,0.3566,0.357,0.3598,0.3581,0.3604,0.3626,0.3606,0.3629,0.3631,0.3648,0.3651,0.3656,0.3657,0.3659,0.3677,0.3678,0.3678,0.3678,0,0,0,0,0,0,0,0.3528,0.3505,0.3539,0.3569,0.3572,0.3576,0.3577,0.3578,0.3627,0.3628,0.3629,0.363,0.3674,0.3674,0.3675,0.3655,0,0,0.3677,0.3677,0,0,0,0,0,0,0,0,0.3504,0.3504,0.3539,0.3539,0.354,0.3576,0.3577,0.3577,0.3627,0.3628,0.3629,0.363,0.3674,0.3674,0.3675,0,0,0,0,0,0,0,0,0,0,0,0,0,0,0,0.3539,0.3539,0,0.3576,0.3577,0.3577,0.3627,0.3628,0.3629,0.3629,0.3674,0.3675,0.3675,0,0,0,0,0,0,0,0,0,0,0,0,0,0,0,0,0,0,0,0,0,0,0,0,0,0,0,0,0,0,0,0,0,0,0,0,0,0,0,0,0,0,0,0,0,0,0,0,0,0,0,0,0,0,0,0,0,0,0,0,0,0,0,0,0,0,0,0,0]}],[{"header":{"parameterUnit":"kt","parameterCategory":2,"dx":1,"dy":1,"la1":30.253999710083008,"la2":30.299108505249023,"lo1":-89.0895004272461,"lo2":-89.04439544677734,"nx":28,"ny":28,"refTime":"2022-10-23T21:00:00:Z","depth":"2","parameterNumber":3,"parameterNumberName":"V-component_of_CURRENTS"},"data":[0.0665,0.0762,0.0803,0.1018,0.1142,0.1335,0.1456,0.1576,0.1696,0.1785,0.181,0.1724,0.1119,0.0611,-0.0016,-0.0415,-0.0499,-0.049,-0.0523,-0.0297,-0.0288,-0.0724,-0.0676,0,0,0,0,0,0.0622,0.0684,0.0793,0.0929,0.1064,0.112,0.1305,0.1388,0.1558,0.1696,0.1733,0.1352,0.0912,0.0421,-0.0303,-0.0798,-0.0792,-0.0933,-0.0808,-0.0804,-0.0801,-0.0776,-0.0835,-0.0836,-0.0837,-0.0838,0,0,0.0549,0.0608,0.0689,0.0799,0.0915,0.1058,0.1154,0.1268,0.1403,0.1535,0.148,0.1437,0.0982,0.0278,-0.02,-0.0691,-0.0706,-0.0888,-0.0882,-0.0877,-0.0859,-0.0829,-0.0938,-0.0939,-0.094,-0.0941,-0.0942,0,0.0483,0.0509,0.057,0.0689,0.0774,0.0874,0.0972,0.1058,0.1114,0.1187,0.1264,0.1211,0.0809,0.0414,-0.0159,-0.0428,-0.0687,-0.0773,-0.0784,-0.068,-0.064,-0.0674,-0.0668,-0.072,-0.072,-0.072,-0.072,-0.0719,0.0405,0.0446,0.0528,0.0587,0.0611,0.0688,0.0751,0.0766,0.0838,0.09,0.0958,0.0834,0.0755,0.0294,-0.0126,-0.0526,-0.0591,-0.0752,-0.0809,-0.0804,-0.0842,-0.0832,-0.0823,-0.0718,-0.0719,-0.0719,-0.0719,0,0.0369,0.0376,0.045,0.0492,0.0513,0.0572,0.0638,0.069,0.0679,0.0757,0.0757,0.0642,0.048,0.0202,-0.0089,-0.0331,-0.0582,-0.0689,-0.0554,-0.0588,-0.0811,-0.0805,-0.0906,-0.0909,-0.0911,-0.0914,-0.0916,0,0.0304,0.035,0.0367,0.0398,0.0478,0.0454,0.0523,0.0506,0.0504,0.0566,0.0423,0.0441,0.017,0.0042,-0.0177,-0.0426,-0.0386,-0.0661,-0.071,-0.0616,-0.0614,-0.0636,-0.0636,-0.0628,-0.0627,-0.0627,-0.0626,0,0.0238,0.027,0.0323,0.0331,0.0341,0.0367,0.0372,0.0343,0.0371,0.0308,0.0329,0.0187,0.015,-0.0032,-0.0231,-0.0251,-0.0426,-0.0486,-0.0674,-0.0679,-0.065,-0.0653,-0.0625,-0.0625,-0.0625,-0.0625,-0.0625,0,0.0162,0.0182,0.0234,0.0265,0.0269,0.0282,0.0294,0.0293,0.0236,0.021,0.0143,0.0068,-0.0023,-0.0108,-0.0284,-0.0249,-0.0378,-0.0478,-0.0485,-0.0584,-0.0644,-0.0626,-0.0608,-0.057,-0.0569,-0.0568,-0.0568,0,0.0114,0.0147,0.0115,0.016,0.0177,0.0128,0.0138,0.0108,0.0073,0.0055,-0.005,-0.0079,-0.0172,-0.0193,-0.0269,-0.0379,-0.0442,-0.0404,-0.056,-0.0564,-0.0629,-0.0621,-0.0528,-0.0596,-0.0558,-0.0559,-0.056,0,0.006,0.0039,0.0043,0.0061,0.0019,0.0015,0.0012,-0.0012,-0.0001,-0.0069,-0.0068,-0.0166,-0.0218,-0.0259,-0.0337,-0.0396,-0.043,-0.0446,-0.0451,-0.0477,-0.0531,-0.0599,-0.0612,-0.0472,-0.0473,-0.0473,-0.0552,0,0.0004,0.0004,0.0007,-0.0017,-0.0033,-0.0031,-0.0083,-0.0095,-0.0124,-0.0163,-0.0199,-0.0291,-0.0347,-0.0377,-0.0429,-0.0459,-0.0477,-0.0518,-0.056,-0.0527,-0.0566,-0.0571,-0.053,-0.0532,-0.0533,-0.0535,0,0,-0.0033,-0.0042,-0.0101,-0.0101,-0.0108,-0.018,-0.0167,-0.02,-0.0259,-0.0267,-0.0292,-0.0386,-0.0451,-0.0495,-0.0488,-0.0521,-0.055,-0.0522,-0.0536,-0.0536,-0.0536,-0.0571,-0.0575,-0.0537,-0.0537,-0.0538,-0.0538,0,-0.0065,-0.01,-0.0098,-0.0124,-0.0168,-0.0207,-0.0207,-0.0267,-0.0284,-0.0307,-0.0368,-0.0416,-0.0474,-0.0528,-0.0562,-0.0537,-0.0596,-0.0543,-0.049,-0.0546,-0.0544,-0.0542,-0.0576,-0.0578,-0.0542,-0.0541,-0.0541,0,-0.0105,-0.0142,-0.015,-0.0203,-0.0237,-0.0249,-0.0305,-0.0327,-0.033,-0.0418,-0.0429,-0.0485,-0.0553,-0.0578,-0.0594,-0.0614,-0.0642,-0.0631,-0.0625,-0.0618,-0.0678,-0.0675,-0.0672,-0.0711,-0.0712,-0.0712,0,0,-0.0126,-0.0141,-0.0207,-0.0216,-0.0233,-0.0292,-0.0313,-0.0344,-0.0392,-0.0409,-0.046,-0.051,-0.0554,-0.058,-0.0623,-0.0648,-0.0689,-0.0649,-0.0641,-0.0634,-0.0623,-0.0681,-0.0677,-0.0713,-0.0713,-0.0713,0,0,-0.014,-0.0207,-0.0228,-0.0246,-0.0286,-0.0356,-0.0361,-0.0393,-0.0433,-0.0433,-0.0507,-0.0524,-0.055,-0.0593,-0.0598,-0.0634,-0.067,-0.0671,-0.0602,-0.0593,-0.0586,-0.0561,-0.0657,0,0,0,0,0,-0.02,-0.0199,-0.0217,-0.0228,-0.0303,-0.0346,-0.0357,-0.0404,-0.042,-0.042,-0.0469,-0.0511,-0.0606,-0.0612,-0.0628,-0.0618,-0.0725,-0.0723,-0.0721,-0.064,-0.0629,-0.0621,0,0,0,0,0,0,-0.0205,-0.0218,-0.0218,-0.0286,-0.0304,-0.0346,-0.0385,-0.0398,-0.042,-0.0425,-0.05,-0.0514,-0.0565,-0.0608,-0.0622,-0.0611,-0.0652,-0.0725,-0.0723,-0.0721,-0.0636,-0.0628,-0.062,0,0,0,0,0,-0.021,-0.022,-0.0324,-0.0287,-0.0302,-0.0368,-0.0385,-0.0396,-0.0412,-0.0493,-0.0506,-0.0445,-0.0563,-0.0578,-0.0617,-0.0603,-0.0644,-0.0648,-0.0723,-0.0722,-0.0721,-0.0632,0,0,0,0,0,0,-0.0213,-0.0232,-0.0328,-0.0336,-0.0287,-0.0366,-0.0379,-0.0394,-0.0479,-0.0492,-0.0442,-0.0445,-0.0562,-0.0574,-0.0586,-0.0596,-0.0636,-0.0641,-0.0644,-0.0722,-0.0721,-0.072,0,0,0,0,0,0,-0.0227,-0.0237,-0.0332,-0.0329,-0.0336,-0.0364,-0.0375,-0.0423,-0.0479,-0.0423,-0.0428,-0.0442,-0.0551,-0.0571,-0.058,-0.0653,-0.0631,-0.0635,-0.0639,-0.0641,-0.0721,-0.072,0,0,0,0,0,0,-0.0232,-0.0242,-0.0328,-0.0333,-0.0339,-0.0422,-0.0409,-0.0485,-0.0468,-0.0419,-0.0469,-0.0469,-0.0548,-0.0558,-0.0577,-0.0645,-0.0651,-0.0631,-0.0634,-0.0636,-0.0638,0,0,0,0,0,0,0,-0.0237,-0.0161,-0.0287,-0.0336,-0.0342,-0.0401,-0.0403,-0.0405,-0.0468,-0.0468,-0.0468,-0.0469,-0.0605,-0.061,-0.0615,-0.0639,0,0,-0.0631,-0.0633,0,0,0,0,0,0,0,0,-0.0159,-0.0161,-0.0288,-0.0289,-0.0291,-0.0402,-0.0403,-0.0405,-0.0468,-0.0468,-0.0468,-0.0469,-0.0606,-0.061,-0.0614,0,0,0,0,0,0,0,0,0,0,0,0,0,0,0,-0.0288,-0.0289,0,-0.0402,-0.0403,-0.0404,-0.0468,-0.0468,-0.0468,-0.0469,-0.0607,-0.0611,-0.0614,0,0,0,0,0,0,0,0,0,0,0,0,0,0,0,0,0,0,0,0,0,0,0,0,0,0,0,0,0,0,0,0,0,0,0,0,0,0,0,0,0,0,0,0,0,0,0,0,0,0,0,0,0,0,0,0,0,0,0,0,0,0,0,0,0,0,0,0,0]}]],[[{"header":{"parameterUnit":"kt","parameterCategory":2,"dx":1,"dy":1,"la1":30.253999710083008,"la2":30.299108505249023,"lo1":-89.0895004272461,"lo2":-89.04439544677734,"nx":28,"ny":28,"refTime":"2022-10-23T21:00:00:Z","depth":"4","parameterNumber":2,"parameterNumberName":"U-component_of_CURRENTS"},"data":[0.1595,0.166,0.1692,0.1708,0.1751,0.185,0.1944,0.2092,0.2122,0.236,0.2445,0.263,0.2789,0.2916,0.2949,0.2984,0.2891,0.3305,0.3297,0.3252,0.3266,0.3278,0.314,0,0,0,0,0,0.1653,0.1674,0.1745,0.183,0.1938,0.2015,0.2172,0.2266,0.2483,0.2516,0.2651,0.2789,0.2907,0.3029,0.2994,0.3211,0.3259,0.3153,0.3098,0.326,0.3276,0.3137,0,0,0,0,0,0,0.1737,0.1761,0.1864,0.1955,0.207,0.2126,0.2213,0.2334,0.2446,0.2761,0.2796,0.3043,0.3243,0.3267,0.3317,0.3325,0.3256,0.311,0.3132,0.3149,0.3014,0.2916,0.2863,0,0,0,0,0,0.1804,0.1886,0.1949,0.2067,0.2171,0.2259,0.2406,0.2456,0.2679,0.2886,0.3022,0.3111,0.3275,0.3346,0.3419,0.3413,0.3492,0.3462,0.3468,0.3329,0.3281,0.3263,0.326,0.3335,0.3337,0.3338,0.3339,0,0.1906,0.1934,0.2101,0.2157,0.224,0.2365,0.2448,0.2645,0.2735,0.3023,0.308,0.3312,0.3428,0.3451,0.355,0.3577,0.3532,0.3505,0.3357,0.3305,0.3285,0.3277,0.3269,0.3352,0.3351,0.335,0.3349,0,0.1958,0.2047,0.2119,0.2273,0.2331,0.24,0.259,0.2669,0.2861,0.3007,0.3082,0.3297,0.3436,0.3529,0.363,0.353,0.3539,0.3511,0.3623,0.3612,0.3299,0.3286,0.3372,0.3368,0.3364,0.3361,0.3358,0,0.2053,0.2103,0.2243,0.2269,0.2363,0.2465,0.2585,0.2693,0.286,0.296,0.3112,0.3215,0.3339,0.344,0.3451,0.3456,0.357,0.3364,0.3351,0.3429,0.3416,0.3409,0.3392,0.3542,0.3541,0.354,0.3539,0,0.2096,0.2199,0.2254,0.2287,0.241,0.2482,0.2565,0.2702,0.2781,0.2957,0.3058,0.3172,0.3278,0.3328,0.3395,0.3358,0.3514,0.3455,0.3336,0.3326,0.3397,0.3382,0.3538,0.3538,0.3538,0.3537,0.3537,0,0.2162,0.2209,0.2273,0.2377,0.2405,0.2467,0.26,0.2666,0.2806,0.2885,0.2995,0.3054,0.3167,0.3143,0.3269,0.3233,0.3268,0.3284,0.3289,0.3117,0.3055,0.3195,0.3318,0.3316,0.3314,0.3312,0.331,0,0.2175,0.2233,0.2282,0.2354,0.2388,0.2471,0.2538,0.2621,0.2706,0.2807,0.2869,0.2959,0.2953,0.302,0.3071,0.3113,0.3173,0.3096,0.3187,0.3189,0.3041,0.3119,0.315,0.3282,0.3285,0.3288,0.329,0,0.2166,0.2256,0.227,0.2306,0.2391,0.2424,0.2503,0.258,0.2651,0.2728,0.2816,0.2871,0.2923,0.294,0.2962,0.3014,0.3128,0.3015,0.3016,0.3069,0.3266,0.3104,0.3106,0.3136,0.3139,0.3141,0.327,0,0.2183,0.2235,0.2261,0.2316,0.236,0.2411,0.2465,0.2531,0.2593,0.2633,0.2728,0.2761,0.2826,0.2836,0.2838,0.293,0.2932,0.2905,0.2887,0.2955,0.3,0.3016,0.2805,0.2803,0.2802,0.2801,0,0,0.2162,0.22,0.2242,0.2274,0.2312,0.2373,0.241,0.2454,0.2529,0.257,0.2587,0.2679,0.2695,0.2758,0.2789,0.2784,0.282,0.2806,0.291,0.2923,0.2934,0.2981,0.2997,0.2799,0.2798,0.2798,0.2797,0,0.2142,0.2195,0.2224,0.2258,0.2325,0.2351,0.2378,0.2438,0.2484,0.2547,0.2563,0.262,0.2665,0.2688,0.2699,0.2763,0.2776,0.2776,0.2844,0.2897,0.2911,0.2924,0.2972,0.2988,0.2794,0.2794,0.2794,0,0.2118,0.2149,0.2173,0.2229,0.227,0.2304,0.2325,0.2391,0.2429,0.2441,0.2522,0.2545,0.2556,0.2612,0.2641,0.263,0.2744,0.2693,0.27,0.2705,0.2757,0.2773,0.2787,0.2609,0.2609,0.2608,0,0,0.2104,0.214,0.2179,0.2225,0.2249,0.2297,0.2332,0.2368,0.2412,0.2443,0.248,0.2516,0.254,0.2574,0.2588,0.2641,0.2653,0.2673,0.2682,0.2689,0.2698,0.2752,0.2767,0.2607,0.2607,0.2607,0,0,0.2093,0.2136,0.216,0.2208,0.225,0.2285,0.2331,0.236,0.2419,0.2446,0.2459,0.247,0.2533,0.2534,0.2514,0.2597,0.2557,0.2561,0.2612,0.2623,0.2631,0.2639,0.2499,0,0,0,0,0,0.2092,0.2123,0.2144,0.2158,0.2227,0.2268,0.2279,0.2335,0.2366,0.2399,0.2441,0.2441,0.2527,0.2509,0.2515,0.2562,0.2588,0.2592,0.2595,0.267,0.2681,0.2691,0,0,0,0,0,0,0.2097,0.211,0.2144,0.2175,0.2192,0.2266,0.2282,0.2297,0.2365,0.2375,0.2431,0.244,0.2442,0.2506,0.2511,0.2556,0.2498,0.259,0.2592,0.2595,0.2674,0.2683,0.2691,0,0,0,0,0,0.2101,0.2112,0.2213,0.2176,0.219,0.2265,0.2283,0.2296,0.2361,0.238,0.2393,0.241,0.244,0.2449,0.2509,0.2555,0.2494,0.2496,0.2591,0.2594,0.2596,0.2678,0,0,0,0,0,0,0.2105,0.2119,0.2217,0.2224,0.2189,0.2264,0.2278,0.2295,0.2363,0.2376,0.2353,0.2358,0.2438,0.2446,0.2452,0.2555,0.2491,0.2493,0.2494,0.2593,0.2595,0.2596,0,0,0,0,0,0,0.2114,0.2123,0.2221,0.2235,0.2243,0.2263,0.2276,0.229,0.2363,0.2332,0.2339,0.2354,0.2431,0.2443,0.2448,0.2468,0.2489,0.2491,0.2492,0.2493,0.2594,0.2596,0,0,0,0,0,0,0.2119,0.2127,0.2233,0.224,0.2247,0.2324,0.2277,0.2346,0.2378,0.2327,0.2383,0.2385,0.2427,0.2433,0.2445,0.2462,0.2466,0.2489,0.249,0.2491,0.2492,0,0,0,0,0,0,0,0.2123,0.2052,0.2181,0.2244,0.2251,0.2286,0.2288,0.2289,0.2378,0.238,0.2382,0.2384,0.2478,0.248,0.2482,0.2458,0,0,0.2489,0.249,0,0,0,0,0,0,0,0,0.2049,0.2051,0.2182,0.2183,0.2185,0.2286,0.2288,0.2289,0.2379,0.238,0.2382,0.2383,0.2479,0.2481,0.2482,0,0,0,0,0,0,0,0,0,0,0,0,0,0,0,0.2182,0.2183,0,0.2287,0.2288,0.2288,0.2379,0.238,0.2381,0.2383,0.2479,0.2481,0.2482,0,0,0,0,0,0,0,0,0,0,0,0,0,0,0,0,0,0,0,0,0,0,0,0,0,0,0,0,0,0,0,0,0,0,0,0,0,0,0,0,0,0,0,0,0,0,0,0,0,0,0,0,0,0,0,0,0,0,0,0,0,0,0,0,0,0,0,0,0]}],[{"header":{"parameterUnit":"kt","parameterCategory":2,"dx":1,"dy":1,"la1":30.253999710083008,"la2":30.299108505249023,"lo1":-89.0895004272461,"lo2":-89.04439544677734,"nx":28,"ny":28,"refTime":"2022-10-23T21:00:00:Z","depth":"4","parameterNumber":3,"parameterNumberName":"V-component_of_CURRENTS"},"data":[0.0228,0.0288,0.0322,0.0429,0.0486,0.0587,0.0656,0.0689,0.0701,0.0714,0.0541,0.047,0.0128,0.0324,-0.0207,-0.0283,-0.0392,-0.0776,-0.0781,-0.0934,-0.0931,-0.0929,-0.0839,0,0,0,0,0,0.0226,0.0258,0.0328,0.0407,0.0496,0.0542,0.0644,0.0672,0.0714,0.0731,0.0712,0.0531,0.0192,0.0028,-0.0199,-0.0334,-0.0648,-0.0613,-0.0737,-0.0932,-0.0929,-0.0843,0,0,0,0,0,0,0.0209,0.0243,0.0295,0.0368,0.0452,0.0537,0.0573,0.0627,0.0671,0.0681,0.0664,0.045,0.0317,-0.0037,-0.0281,-0.0515,-0.0571,-0.0635,-0.0648,-0.0649,-0.0537,-0.0453,-0.048,0,0,0,0,0,0.0184,0.0202,0.0249,0.0329,0.0387,0.0463,0.0526,0.0573,0.0599,0.0594,0.0574,0.0402,0.0194,-0.0096,-0.0358,-0.0595,-0.0795,-0.0868,-0.0868,-0.0847,-0.0813,-0.0839,-0.083,-0.0919,-0.0918,-0.0918,-0.0918,0,0.0139,0.0174,0.0243,0.0282,0.0302,0.0359,0.0404,0.0424,0.0461,0.0454,0.0473,0.0322,0.0215,-0.0126,-0.0385,-0.0714,-0.0755,-0.086,-0.0837,-0.0807,-0.0837,-0.0827,-0.0818,-0.0916,-0.0916,-0.0916,-0.0916,0,0.0116,0.0131,0.0192,0.0236,0.0256,0.0297,0.0347,0.0377,0.0361,0.0386,0.0377,0.0259,0.0078,-0.0143,-0.0401,-0.0533,-0.073,-0.0796,-0.0709,-0.0743,-0.0819,-0.081,-0.0912,-0.0913,-0.0913,-0.0914,-0.0914,0,0.0076,0.0115,0.0141,0.0168,0.0233,0.0226,0.0273,0.0265,0.0256,0.028,0.0172,0.0155,-0.0062,-0.02,-0.0372,-0.057,-0.0582,-0.0702,-0.0742,-0.0676,-0.0669,-0.071,-0.0706,-0.0734,-0.0733,-0.0732,-0.0731,0,0.0031,0.0066,0.0114,0.0125,0.015,0.0171,0.018,0.0158,0.0175,0.0118,0.0112,-0.0001,-0.0056,-0.0208,-0.0389,-0.039,-0.059,-0.0614,-0.0709,-0.0711,-0.0703,-0.0701,-0.073,-0.073,-0.073,-0.0729,-0.0729,0,-0.0017,0.0004,0.0051,0.0092,0.0096,0.0111,0.0126,0.0128,0.0081,0.0053,-0.0003,-0.007,-0.0147,-0.0204,-0.0376,-0.0341,-0.045,-0.0537,-0.0545,-0.0562,-0.0603,-0.0639,-0.065,-0.0648,-0.0647,-0.0646,-0.0645,0,-0.0042,-0.0013,-0.0029,0.0011,0.0029,0.0,0.0014,-0.0004,-0.0039,-0.0063,-0.0136,-0.0166,-0.0227,-0.025,-0.0311,-0.0416,-0.0471,-0.0412,-0.0588,-0.0593,-0.0584,-0.0594,-0.0492,-0.0628,-0.063,-0.0631,-0.0632,0,-0.0073,-0.0079,-0.0079,-0.0055,-0.008,-0.0086,-0.0083,-0.0096,-0.0089,-0.0152,-0.0156,-0.0218,-0.0267,-0.029,-0.034,-0.039,-0.045,-0.0442,-0.0446,-0.0491,-0.0582,-0.0575,-0.0585,-0.0486,-0.0487,-0.0488,-0.062,0,-0.0076,-0.0082,-0.0091,-0.01,-0.0115,-0.0123,-0.0151,-0.0168,-0.0195,-0.0221,-0.0257,-0.0322,-0.036,-0.038,-0.041,-0.0434,-0.0467,-0.0489,-0.0508,-0.0499,-0.056,-0.0569,-0.0476,-0.0477,-0.0478,-0.0479,0,0,-0.0085,-0.01,-0.0151,-0.0153,-0.0157,-0.0212,-0.0201,-0.0228,-0.0279,-0.0287,-0.0314,-0.0385,-0.0426,-0.0441,-0.0437,-0.0466,-0.0511,-0.0461,-0.0499,-0.0501,-0.0503,-0.0559,-0.0567,-0.048,-0.0481,-0.0481,-0.0481,0,-0.0089,-0.0132,-0.0141,-0.0162,-0.0199,-0.0222,-0.0229,-0.0277,-0.029,-0.032,-0.035,-0.0389,-0.0442,-0.0461,-0.0478,-0.0477,-0.0528,-0.0488,-0.0448,-0.0504,-0.0505,-0.0506,-0.0561,-0.0568,-0.0483,-0.0483,-0.0483,0,-0.009,-0.0121,-0.0137,-0.0188,-0.0218,-0.0226,-0.0265,-0.0298,-0.0295,-0.0357,-0.0372,-0.0417,-0.0457,-0.048,-0.0495,-0.0503,-0.0549,-0.0526,-0.0522,-0.0514,-0.0573,-0.0573,-0.0574,-0.0571,-0.0571,-0.0571,0,0,-0.0089,-0.0114,-0.0161,-0.0192,-0.0209,-0.0252,-0.0275,-0.0294,-0.0334,-0.0351,-0.0387,-0.0422,-0.0451,-0.0471,-0.0505,-0.0535,-0.0574,-0.0534,-0.053,-0.0526,-0.0516,-0.0573,-0.0573,-0.0571,-0.0571,-0.0571,0,0,-0.0089,-0.0139,-0.0151,-0.0191,-0.0224,-0.0275,-0.0296,-0.0316,-0.0355,-0.0356,-0.0398,-0.041,-0.0441,-0.0471,-0.0467,-0.0499,-0.0519,-0.0522,-0.0473,-0.0468,-0.0464,-0.044,-0.0486,0,0,0,0,0,-0.0108,-0.0132,-0.0141,-0.0154,-0.0225,-0.0269,-0.028,-0.0312,-0.032,-0.0333,-0.0367,-0.0386,-0.0469,-0.0467,-0.0481,-0.0472,-0.0573,-0.0572,-0.0572,-0.0517,-0.0512,-0.0508,0,0,0,0,0,0,-0.0113,-0.0127,-0.0141,-0.0192,-0.0209,-0.0269,-0.0279,-0.0288,-0.0319,-0.0321,-0.0379,-0.0388,-0.0413,-0.0463,-0.0475,-0.0465,-0.0483,-0.0573,-0.0572,-0.0572,-0.0515,-0.0511,-0.0507,0,0,0,0,0,-0.0117,-0.0129,-0.0234,-0.0192,-0.0206,-0.0255,-0.0278,-0.0286,-0.0312,-0.036,-0.037,-0.0335,-0.0413,-0.0425,-0.047,-0.0458,-0.0475,-0.0479,-0.0572,-0.0572,-0.0572,-0.0513,0,0,0,0,0,0,-0.012,-0.0138,-0.0238,-0.0244,-0.0185,-0.0253,-0.0264,-0.0284,-0.035,-0.0359,-0.0317,-0.0318,-0.0412,-0.0422,-0.0431,-0.0453,-0.0468,-0.0473,-0.0475,-0.0572,-0.0572,-0.0572,0,0,0,0,0,0,-0.0132,-0.0142,-0.0241,-0.023,-0.0235,-0.025,-0.026,-0.0305,-0.035,-0.0303,-0.0306,-0.0317,-0.04,-0.042,-0.0427,-0.0497,-0.0463,-0.0468,-0.047,-0.0472,-0.0572,-0.0572,0,0,0,0,0,0,-0.0137,-0.0146,-0.0229,-0.0233,-0.0237,-0.0306,-0.0291,-0.0364,-0.0338,-0.03,-0.0336,-0.0336,-0.0398,-0.0406,-0.0425,-0.0491,-0.0496,-0.0464,-0.0466,-0.0468,-0.047,0,0,0,0,0,0,0,-0.0141,-0.007,-0.0203,-0.0235,-0.0239,-0.0299,-0.03,-0.0302,-0.0337,-0.0337,-0.0337,-0.0336,-0.044,-0.0445,-0.0449,-0.0486,0,0,-0.0463,-0.0465,0,0,0,0,0,0,0,0,-0.0068,-0.007,-0.0203,-0.0204,-0.0205,-0.0299,-0.03,-0.0301,-0.0337,-0.0337,-0.0337,-0.0336,-0.0441,-0.0445,-0.0449,0,0,0,0,0,0,0,0,0,0,0,0,0,0,0,-0.0203,-0.0204,0,-0.0299,-0.03,-0.0301,-0.0337,-0.0337,-0.0337,-0.0336,-0.0442,-0.0445,-0.0448,0,0,0,0,0,0,0,0,0,0,0,0,0,0,0,0,0,0,0,0,0,0,0,0,0,0,0,0,0,0,0,0,0,0,0,0,0,0,0,0,0,0,0,0,0,0,0,0,0,0,0,0,0,0,0,0,0,0,0,0,0,0,0,0,0,0,0,0,0]}]]]